Regional Weather Roundup
Issued by NWS State College, PA

Home | Current Version | Previous Version | Graphics & Text | Print | Product List | Glossary On
Versions: 1 2 3 4 5 6 7 8 9 10 11 12 13 14 15 16 17 18 19 20 21 22 23 24 25 26 27 28 29 30 31 32 33 34 35 36 37 38 39 40 41 42 43 44 45 46 47 48 49 50
000
ASUS41 KCTP 281003
RWRCTP

REGIONAL WEATHER ROUNDUP
NATIONAL WEATHER SERVICE STATE COLLEGE PA
600 AM EDT FRI APR 28 2017

Note: "fair" indicates few or no clouds below 12,000 feet with no
significant weather and/or obstructions to visibility.

* = STATION THAT DOES NOT REPORT PRECIPITATION /E.G. RAIN...SNOW...ETC/
    THUNDER OR FOG.

PAZ002>004-007>009-013>016-020>023-029>032-281100-
WESTERN PENNSYLVANIA

CITY           SKY/WX    TMP DP  RH WIND       PRES   REMARKS
ERIE           CLOUDY    50  43  77 SW7       29.96R
MEADVILLE      MOCLDY    46  43  89 S6        29.97R
FRANKLIN*      CLEAR     43  37  81 CALM      29.99R
NEW CASTLE     CLOUDY    46  46 100 CALM      30.01R FOG
BEAVER COUNTY  NOT AVBL
BUTLER*        CLEAR     45  43  93 CALM      30.01R
PITTSBURGH INT PTCLDY    48  47  96 CALM      29.99R
PITTSBURGH     CLEAR     52  45  77 W3        29.99R
INDIANA*       MOCLDY    52  50  93 CALM      30.02R
LATROBE        CLEAR     50  50 100 CALM      30.00R
WASHINGTON CO*   N/A     43  39  87 CALM      30.03R VSB 1/2
$$

PAZ004>006-010>012-017>019-024>028-033>037-041-042-045-046-049>053-281100-
CENTRAL PENNSYLVANIA

CITY           SKY/WX    TMP DP  RH WIND       PRES   REMARKS
BRADFORD       CLEAR     43  42  97 CALM      29.96S
DUBOIS         CLEAR     46  41  82 CALM      29.97R
CLEARFIELD     PTCLDY    53  48  83 W6        29.98R
JOHNSTOWN      PTCLDY    52  48  86 W3        29.99R
ALTOONA        CLEAR     56  50  80 SW7       29.98R
STATE COLLEGE  PTCLDY    55  52  88 CALM      29.97R
WILLIAMSPORT   CLOUDY    60  60 100 W7        29.91R FOG
SELINSGROVE    FOG       56  56 100 CALM      29.93R VSB 1/4
FT INDIANTOWN  CLEAR     57  57 100 CALM      29.92R FOG
CAPITAL CITY   MOCLDY    63  59  87 CALM      29.92R
HARRISBURG     PTCLDY    61  61 100 CALM      29.92R
YORK           CLEAR     59  58  96 CALM      29.92R
$$

PAZ038>040-043-044-047-048-054-055-060>062-067>071-281100-
EASTERN PENNSYLVANIA

CITY           SKY/WX    TMP DP  RH WIND       PRES   REMARKS
SCRANTON       MOCLDY    65  61  87 SW7       29.91R
MOUNT POCONO   PTCLDY    57  57 100 W7        29.94R FOG
ALLENTOWN      PTCLDY    58  55  90 N5        29.91R FOG
QUAKERTOWN*    SUNNY     55  55 100 CALM      29.91S
READING        PTCLDY    62  60  93 N3        29.90R
LANCASTER      PTCLDY    60  60 100 W3        29.92R
COATESVILLE    SUNNY     63  61  94 W6        29.94R
POTTSTOWN      CLEAR     57  57 100 CALM      29.91R FOG
BLUE BELL      CLOUDY    59  59 100 CALM      29.92R
DOYLESTOWN     CLOUDY    57  57 100 CALM      29.90R FOG
WILLOW GROVE   NOT AVBL
NORTH PHILA    PTCLDY    62  60  93 S3        29.92R FOG
PHILADELPHIA   MOCLDY    64  62  93 SW5       29.92R
$$




USA.gov is the U.S. government's official web portal to all federal, state and local government web resources and services.